FW7132 Weather Reports


Display with metric or nautical units.
time (UTC)temp
F
wind
direction
speed
MPH
gust
MPH
rain 1hr
in
rain 24hr
in
rain mn
in
humidity
%
barometer
mb
20260507085249 61 359 0.0 0.0 0.00 0.00 0.00 54 1014.9
20260507084749 61 359 0.0 0.0 0.00 0.00 0.00 56 1015.0
20260507084249 61 359 0.0 0.0 0.00 0.00 0.00 54 1015.0
20260507083749 61 358 0.0 0.0 0.00 0.00 0.00 55 1015.0
20260507082748 61 359 0.0 1.0 0.00 0.00 0.00 55 1015.1
20260507082248 62 358 0.0 1.0 0.00 0.00 0.00 52 1015.2
20260507081748 62 101 0.0 0.0 0.00 0.00 0.00 51 1015.2
20260507080747 62 148 0.0 0.0 0.00 0.00 0.00 50 1015.3
20260507080248 64 322 0.0 0.0 0.00 0.00 0.00 44 1015.4
20260507072746 64 322 0.0 0.0 0.00 0.00 0.00 41 1015.3
20260507072247 64 322 0.0 0.0 0.00 0.00 0.00 42 1015.3
20260507071747 64 322 0.0 0.0 0.00 0.00 0.00 41 1015.3
20260507071316 65 322 0.0 0.0 0.00 0.00 0.00 43 1015.5
20260507070746 65 322 0.0 0.0 0.00 0.00 0.00 43 1015.5
20260507070316 65 322 0.0 0.0 0.00 0.00 0.00 42 1015.5
20260507065816 66 322 0.0 0.0 0.00 0.00 0.00 39 1015.5
20260507064816 66 322 0.0 1.0 0.00 0.00 0.00 42 1015.4
20260507063815 66 356 0.0 1.0 0.00 0.00 0.00 39 1015.3
20260507063315 66 356 0.0 1.0 0.00 0.00 0.00 42 1015.4
20260507062815 67 356 0.0 0.0 0.00 0.00 0.00 39 1015.4
20260507062314 68 356 0.0 0.0 0.00 0.00 0.00 39 1015.5
20260507061815 69 356 0.0 0.0 0.00 0.00 0.00 35 1015.5
20260507061314 69 356 0.0 0.0 0.00 0.00 0.00 35 1015.5
20260507060814 70 356 0.0 1.0 0.00 0.00 0.00 33 1015.7
20260507060314 69 356 0.0 2.0 0.00 0.00 0.00 32 1015.4
20260507055814 68 347 0.0 2.0 0.00 0.00 0.00 33 1015.3
20260507054813 67 99 0.0 1.0 0.00 0.00 0.00 43 1015.3
20260507053313 67 99 0.0 1.0 0.00 0.00 0.00 44 1015.4
20260507052813 67 99 0.0 1.0 0.00 0.00 0.00 42 1015.3
20260507052313 68 99 0.0 1.0 0.00 0.00 0.00 38 1015.4
20260507051812 68 99 0.0 1.0 0.00 0.00 0.00 38 1015.3
20260507051312 68 99 0.0 1.0 0.00 0.00 0.00 39 1015.3
20260507050812 68 99 0.0 1.0 0.00 0.00 0.00 41 1015.3
20260507050312 68 99 0.0 1.0 0.00 0.00 0.00 42 1015.3
20260507045812 67 99 1.0 1.0 0.00 0.00 0.00 42 1015.2
20260507044812 68 99 0.0 1.0 0.00 0.00 0.00 44 1015.2
20260507043811 68 99 0.0 1.0 0.00 0.00 0.00 44 1015.1
20260507043311 68 99 0.0 0.0 0.00 0.00 0.00 44 1015.1
20260507042811 68 99 0.0 0.0 0.00 0.00 0.00 43 1015.0
20260507042311 68 99 0.0 0.0 0.00 0.00 0.00 43 1015.0
20260507041811 68 99 0.0 0.0 0.00 0.00 0.00 46 1015.0
20260507041311 68 99 0.0 0.0 0.00 0.00 0.00 45 1014.9
20260507040811 69 99 0.0 1.0 0.00 0.00 0.00 45 1014.9
20260507040311 69 99 0.0 1.0 0.00 0.00 0.00 44 1014.8
20260507030309 71 219 0.0 0.0 0.00 0.00 0.00 39 1014.1
20260507025808 71 219 0.0 0.0 0.00 0.00 0.00 38 1014.0
20260507025308 72 219 0.0 0.0 0.00 0.00 0.00 36 1013.8
20260507024808 73 219 0.0 0.0 0.00 0.00 0.00 33 1013.9
20260507024308 73 219 0.0 0.0 0.00 0.00 0.00 32 1013.7
20260507023308 75 219 0.0 0.0 0.00 0.00 0.00 30 1013.8
20260507022808 75 219 0.0 1.0 0.00 0.00 0.00 27 1013.6
20260507022308 76 219 0.0 1.0 0.00 0.00 0.00 26 1013.7
20260507021808 77 219 0.0 1.0 0.00 0.00 0.00 26 1013.5
20260507021307 77 219 0.0 2.0 0.00 0.00 0.00 24 1013.5
20260507020807 78 224 0.0 2.0 0.00 0.00 0.00 24 1013.8
20260507020307 79 228 0.0 2.0 0.00 0.00 0.00 23 1013.6
20260507015807 79 228 0.0 4.0 0.00 0.00 0.00 23 1013.6
20260507015307 80 207 0.0 5.0 0.00 0.00 0.00 22 1013.4
20260507014806 81 216 1.0 5.0 0.00 0.00 0.00 21 1013.6
20260507014307 81 238 0.0 3.0 0.00 0.00 0.00 22 1013.5
20260507013806 81 235 0.0 3.0 0.00 0.00 0.00 21 1013.5
20260507013306 81 231 0.0 2.0 0.00 0.00 0.00 21 1013.6
20260507012307 82 276 0.0 3.0 0.00 0.00 0.00 21 1013.6
20260507011806 82 221 3.0 4.0 0.00 0.00 0.00 21 1013.6
20260507011305 82 243 1.0 4.0 0.00 0.00 0.00 21 1013.7
20260507010805 82 192 1.0 6.0 0.00 0.00 0.00 21 1013.5
20260507005805 82 283 0.0 7.0 0.00 0.00 0.00 21 1013.6
20260507005306 82 289 1.0 7.0 0.00 0.00 0.00 21 1012.9
20260507004805 83 219 4.0 4.0 0.00 0.00 0.00 20 1013.0
20260507003804 82 150 1.0 5.0 0.00 0.00 0.00 21 1012.8
20260507003304 82 334 0.0 5.0 0.00 0.00 0.00 20 1012.8
20260507002805 83 264 2.0 5.0 0.00 0.00 0.00 20 1013.0
20260507002306 83 200 3.0 4.0 0.00 0.00 0.00 20 1013.0
20260507001804 82 205 0.0 5.0 0.00 0.00 0.00 20 1012.8
20260507001304 83 242 0.0 6.0 0.00 0.00 0.00 20 1012.9
20260507000804 83 223 2.0 6.0 0.00 0.00 0.00 21 1013.0
20260506230802 82 265 0.0 4.0 0.00 0.00 0.00 21 1013.2
20260506230302 82 75 0.0 9.0 0.00 0.00 0.00 21 1013.2
20260506225802 82 299 1.0 9.0 0.00 0.00 0.00 21 1013.3
20260506225305 83 257 3.0 7.0 0.00 0.00 0.00 21 1013.5
20260506224301 82 302 7.0 10.0 0.00 0.00 0.00 21 1013.7
20260506223801 82 287 7.0 10.0 0.00 0.00 0.00 21 1013.6
20260506223301 82 257 3.0 8.0 0.00 0.00 0.00 21 1013.7
20260506221801 82 249 2.0 8.0 0.00 0.00 0.00 21 1013.9
20260506221300 81 333 2.0 8.0 0.00 0.00 0.00 21 1013.9
20260506220800 81 317 2.0 7.0 0.00 0.00 0.00 21 1013.9
20260506220300 82 280 2.0 7.0 0.00 0.00 0.00 20 1014.2
20260506215800 82 269 4.0 4.0 0.00 0.00 0.00 21 1014.2
20260506215300 82 304 1.0 3.0 0.00 0.00 0.00 21 1014.3
20260506213759 81 151 1.0 8.0 0.00 0.00 0.00 21 1014.6
20260506212759 81 310 2.0 6.0 0.00 0.00 0.00 22 1014.7
20260506212259 81 302 4.0 6.0 0.00 0.00 0.00 22 1014.6
20260506211759 81 286 3.0 6.0 0.00 0.00 0.00 22 1014.8
20260506211258 80 290 3.0 4.0 0.00 0.00 0.00 22 1014.8
20260506210759 80 349 2.0 5.0 0.00 0.00 0.00 22 1014.8
20260506210258 80 297 0.0 7.0 0.00 0.00 0.00 22 1015.0
20260506204758 80 322 1.0 9.0 0.00 0.00 0.00 23 1015.4
20260506203758 79 299 5.0 8.0 0.00 0.00 0.00 23 1015.5
20260506203257 79 88 1.0 8.0 0.00 0.00 0.00 23 1015.5
20260506202757 80 317 0.0 6.0 0.00 0.00 0.00 23 1015.5
20260506202257 79 299 0.0 7.0 0.00 0.00 0.00 24 1015.6
20260506201757 80 282 4.0 7.0 0.00 0.00 0.00 23 1015.7
20260506201257 79 283 3.0 6.0 0.00 0.00 0.00 24 1015.7
20260506200757 78 272 2.0 6.0 0.00 0.00 0.00 24 1015.7
20260506200256 79 220 2.0 6.0 0.00 0.00 0.00 25 1015.9
20260506195256 79 292 2.0 11.0 0.00 0.00 0.00 25 1015.9
20260506194756 78 231 3.0 8.0 0.00 0.00 0.00 26 1015.9
20260506194256 77 321 2.0 8.0 0.00 0.00 0.00 25 1015.9
20260506193756 77 302 0.0 7.0 0.00 0.00 0.00 25 1016.1
20260506192756 77 208 2.0 6.0 0.00 0.00 0.00 26 1016.2
20260506192255 77 274 2.0 6.0 0.00 0.00 0.00 26 1016.2
20260506191755 78 247 1.0 5.0 0.00 0.00 0.00 27 1016.2
20260506190755 76 304 4.0 9.0 0.00 0.00 0.00 27 1016.2
20260506190255 77 271 7.0 8.0 0.00 0.00 0.00 27 1016.5
20260506185755 77 224 2.0 8.0 0.00 0.00 0.00 27 1016.4
20260506185255 77 303 1.0 8.0 0.00 0.00 0.00 27 1016.5
20260506184755 77 234 4.0 10.0 0.00 0.00 0.00 27 1016.5
20260506184255 77 311 2.0 10.0 0.00 0.00 0.00 26 1016.6
20260506183754 76 23 1.0 6.0 0.00 0.00 0.00 27 1016.7
20260506182254 75 295 0.0 6.0 0.00 0.00 0.00 28 1016.9
20260506181754 76 209 3.0 5.0 0.00 0.00 0.00 28 1016.9
20260506181253 76 276 3.0 6.0 0.00 0.00 0.00 28 1017.0
20260506180754 76 237 1.0 6.0 0.00 0.00 0.00 29 1017.1
20260506180253 75 217 1.0 4.0 0.00 0.00 0.00 28 1017.0
20260506175753 75 123 0.0 4.0 0.00 0.00 0.00 30 1017.0
20260506175253 74 200 2.0 5.0 0.00 0.00 0.00 30 1016.8
20260506174753 74 239 2.0 6.0 0.00 0.00 0.00 31 1016.9
20260506174252 74 321 3.0 6.0 0.00 0.00 0.00 31 1017.0
20260506173252 73 216 1.0 4.0 0.00 0.01 0.00 31 1016.9
20260506172752 73 295 0.0 6.0 0.00 0.01 0.00 31 1016.8
20260506172252 72 237 1.0 7.0 0.00 0.01 0.00 32 1016.7
20260506171752 72 302 5.0 7.0 0.00 0.01 0.00 33 1016.7
20260506171251 72 321 2.0 4.0 0.00 0.01 0.00 32 1016.7
20260506170252 72 290 3.0 4.0 0.00 0.01 0.00 34 1016.6
20260506165751 72 282 1.0 5.0 0.00 0.01 0.00 32 1016.5
20260506165251 72 163 1.0 5.0 0.00 0.01 0.00 34 1016.9
20260506164751 72 243 2.0 4.0 0.00 0.01 0.00 33 1016.8
20260506164251 71 321 2.0 4.0 0.00 0.01 0.00 33 1016.6
20260506163750 71 206 2.0 4.0 0.00 0.01 0.00 33 1016.6
20260506163251 71 279 0.0 4.0 0.00 0.01 0.00 33 1016.6
20260506162751 71 234 1.0 4.0 0.00 0.01 0.00 35 1016.6
20260506162250 71 139 2.0 4.0 0.00 0.01 0.00 34 1016.5
20260506161750 70 198 1.0 3.0 0.00 0.01 0.00 36 1016.6
20260506161250 70 75 2.0 3.0 0.00 0.01 0.00 35 1016.5
20260506160249 70 71 0.0 4.0 0.00 0.01 0.00 35 1016.6
20260506155249 69 46 0.0 3.0 0.00 0.01 0.00 36 1016.6
20260506154249 69 111 0.0 3.0 0.00 0.01 0.00 36 1016.7
20260506153749 69 120 1.0 3.0 0.00 0.01 0.00 37 1016.7
20260506153249 68 5 0.0 2.0 0.00 0.01 0.00 37 1016.6
20260506152749 68 23 0.0 4.0 0.00 0.01 0.00 38 1016.6
20260506152249 68 113 1.0 4.0 0.00 0.01 0.00 37 1016.5
20260506151749 68 96 3.0 3.0 0.00 0.01 0.00 37 1016.5
20260506151248 68 222 1.0 2.0 0.00 0.01 0.00 38 1016.7
20260506150748 68 90 1.0 2.0 0.00 0.01 0.00 38 1016.7
20260506145748 67 210 2.0 3.0 0.00 0.01 0.00 40 1016.6
20260506145248 66 193 2.0 4.0 0.00 0.01 0.00 40 1016.6
20260506144748 66 116 2.0 4.0 0.00 0.01 0.00 40 1016.6
20260506143747 65 93 2.0 5.0 0.00 0.01 0.00 40 1016.5
20260506143247 65 146 2.0 5.0 0.00 0.01 0.00 43 1016.5
20260506142747 65 104 3.0 6.0 0.00 0.01 0.00 42 1016.4
20260506142247 65 115 0.0 6.0 0.00 0.01 0.00 43 1016.5
20260506141747 64 151 1.0 3.0 0.00 0.01 0.00 43 1016.4
20260506141247 64 131 0.0 3.0 0.00 0.01 0.00 46 1016.4
20260506140816 64 137 0.0 3.0 0.00 0.01 0.00 47 1016.4
20260506135816 63 113 1.0 3.0 0.00 0.01 0.00 49 1016.1
20260506135316 62 128 1.0 3.0 0.00 0.01 0.00 51 1016.2
20260506134816 61 122 1.0 1.0 0.00 0.01 0.00 53 1016.0
20260506134315 60 113 1.0 1.0 0.00 0.01 0.00 56 1015.9
20260506133816 59 104 0.0 1.0 0.00 0.01 0.00 59 1015.7
20260506133315 58 85 0.0 1.0 0.00 0.01 0.00 63 1015.7
20260506132815 56 85 0.0 1.0 0.00 0.01 0.00 67 1015.5
20260506132315 55 85 0.0 1.0 0.00 0.01 0.00 69 1015.3
20260506131815 54 58 0.0 0.0 0.00 0.01 0.00 72 1015.3
20260506131245 53 58 0.0 0.0 0.00 0.01 0.00 71 1015.0
20260506130815 53 58 0.0 0.0 0.00 0.01 0.00 71 1015.1
20260506130244 53 58 0.0 0.0 0.00 0.01 0.00 71 1014.9
20260506125814 53 58 0.0 0.0 0.00 0.01 0.00 70 1014.9
20260506125314 53 58 0.0 0.0 0.00 0.01 0.00 71 1014.9
20260506124744 53 58 0.0 1.0 0.00 0.01 0.00 71 1014.9
20260506124244 53 58 0.0 1.0 0.00 0.01 0.00 71 1014.8
20260506123314 54 58 0.0 1.0 0.00 0.01 0.00 70 1014.7
20260506122813 53 58 0.0 1.0 0.00 0.01 0.00 71 1014.6
20260506122313 53 27 0.0 1.0 0.00 0.01 0.00 71 1014.6
20260506121813 53 27 0.0 0.0 0.00 0.01 0.00 71 1014.6
20260506121313 53 27 0.0 0.0 0.00 0.01 0.00 72 1014.5
20260506120813 53 27 0.0 0.0 0.00 0.01 0.00 71 1014.4
20260506120313 53 27 0.0 1.0 0.00 0.01 0.00 72 1014.4
20260506115813 53 27 0.0 1.0 0.00 0.01 0.00 71 1014.4
20260506115313 53 28 0.0 1.0 0.00 0.01 0.00 71 1014.5
20260506114812 53 27 0.0 1.0 0.00 0.01 0.00 73 1014.4
20260506114312 53 27 0.0 0.0 0.00 0.01 0.00 74 1014.4
20260506112812 53 27 0.0 0.0 0.00 0.01 0.00 74 1014.5
20260506112311 53 27 0.0 0.0 0.00 0.01 0.00 77 1014.6
20260506111811 53 27 0.0 0.0 0.00 0.01 0.00 76 1014.6
20260506111311 53 27 0.0 0.0 0.00 0.01 0.00 74 1014.5
20260506110811 53 27 0.0 0.0 0.00 0.01 0.00 71 1014.4
20260506110311 53 27 0.0 0.0 0.00 0.01 0.00 72 1014.4
20260506105811 54 27 0.0 0.0 0.00 0.01 0.00 73 1014.5
20260506105311 55 27 0.0 0.0 0.00 0.01 0.00 69 1014.5
20260506104810 55 27 0.0 0.0 0.00 0.01 0.00 70 1014.6
20260506104311 55 27 0.0 0.0 0.00 0.01 0.00 68 1014.6
20260506103810 54 27 0.0 0.0 0.00 0.01 0.00 71 1014.5
20260506102810 55 27 0.0 0.0 0.00 0.01 0.00 69 1014.4
20260506102310 55 27 0.0 0.0 0.00 0.01 0.00 68 1014.5
20260506101809 55 27 0.0 0.0 0.00 0.01 0.00 68 1014.4
20260506101310 55 27 0.0 0.0 0.00 0.01 0.00 68 1014.3
20260506100810 56 27 0.0 0.0 0.00 0.01 0.00 67 1014.5
20260506100309 56 27 0.0 0.0 0.00 0.01 0.00 63 1014.4
20260506095809 56 27 0.0 0.0 0.00 0.02 0.00 61 1014.4
20260506094809 58 27 0.0 1.0 0.00 0.02 0.00 59 1014.5
20260506094308 57 27 0.0 1.0 0.00 0.02 0.00 58 1014.4
20260506093809 58 28 0.0 0.0 0.00 0.02 0.00 59 1014.4
20260506093309 58 27 0.0 0.0 0.00 0.02 0.00 55 1014.5
20260506092308 58 27 0.0 0.0 0.00 0.02 0.00 53 1014.4
20260506091808 59 27 0.0 0.0 0.00 0.02 0.00 53 1014.5
20260506091308 59 27 0.0 0.0 0.00 0.02 0.00 54 1014.4
20260506090808 59 28 0.0 0.0 0.00 0.02 0.00 52 1014.5
20260506090308 59 27 0.0 0.0 0.00 0.02 0.00 50 1014.4
20260506085807 60 27 0.0 1.0 0.00 0.02 0.00 50 1014.5